Location: Lane
(33.5226°N, 79.8788°W)
Time: 05:06:14
(UTC+00:00)

Courier 1B Rocket - Pass Details

Date: 10 October 2022
Orbit: 920 x 1201 km, 28.2° (Epoch: 02 December)

Event Time Altitude Azimuth Distance (km) Brightness Sun altitude
Rises 23:02:47 0° 262° (W) 3,971 11.7 -3.1°
Reaches altitude 10° 23:05:42 10° 259° (WSW) 2,972 9.5 -3.7°
Maximum altitude 23:12:48 57° 183° (S) 1,226 5.6 -5.1°
Drops below altitude 10° 23:19:23 10° 106° (ESE) 2,765 6.8 -6.5°
Enters shadow 23:20:21 - 104° (ESE) 3,098 7.0 -6.7°
